Temp
61 61 62 62 62 62 62 62 62 61 62 62 63 63 63 63 64 67 63 65 66 67 66 68 71 71 72 67 67 67 64 60 59 56 59 60 59 62 62 61 60 64 64 65 65
61 61 61 61 61 61 62 61 61 61 61 62 62 62 63 63 66 63 67 67 67 67 68 69 67 69 68 64 66 67 61 60 61 61 60 60 59 60 59 60 61 62 66 64 63
60 60 60 61 61 61 62 61 61 61 61 62 62 62 62 64 63 63 66 66 67 67 68 68 69 67 63 64 61 60 62 59 59 60 59 59 58 61 59 58 64 63 65 65 63
60 60 60 60 60 61 61 61 61 61 61 61 62 62 62 65 57 64 64 65 66 68 67 67 67 63 61 59 59 58 57 58 57 57 57 56 59 58 60 64 63 65 63 62 61
60 59 59 59 60 61 61 61 61 61 61 61 62 62 64 61 62 66 62 64 67 67 65 66 64 62 59 58 58 57 56 56 56 55 57 56 56 57 58 65 66 61 59 61 61
60 59 59 59 59 60 60 60 61 61 61 61 62 62 63 57 65 66 64 65 65 67 64 66 65 64 59 56 57 56 55 56 56 56 56 52 56 53 61 59 58 59 61 62 61
59 59 59 59 59 59 60 60 60 60 61 61 62 63 60 61 66 67 65 64 64 66 64 64 66 64 60 55 56 55 53 56 56 55 55 53 54 50 62 59 59 60 60 60 60
59 59 58 58 59 59 59 60 60 60 61 62 63 62 58 64 67 65 66 65 66 67 65 65 66 61 58 57 56 53 54 54 53 53 54 54 58 60 58 59 61 61 63 60 62
59 58 58 58 58 58 59 59 59 61 62 63 61 60 57 64 61 62 64 63 64 64 64 65 63 57 57 55 54 54 54 52 54 51 51 51 56 59 57 57 61 62 63 63 62
58 58 58 58 58 58 59 59 60 62 62 63 62 56 57 56 60 61 63 63 62 62 61 61 59 57 55 55 50 52 53 51 51 51 50 51 52 60 63 59 58 61 63 61 61
58 58 58 58 58 59 58 60 58 56 57 57 56 55 55 58 60 58 60 61 62 61 55 54 55 53 56 52 51 51 50 50 53 48 46 51 51 57 60 55 55 57 58 59 60
58 58 58 58 58 58 56 56 58 59 53 54 54 54 56 58 54 56 59 58 57 53 52 53 52 49 50 49 49 49 48 50 51 46 46 51 50 56 54 54 54 56 58 59 58
58 58 58 58 58 55 55 57 59 59 53 51 53 54 55 57 54 54 57 57 54 50 50 52 47 47 47 47 47 47 47 46 44 47 46 46 55 54 54 54 55 55 57 57 58
58 58 58 58 54 54 53 57 58 58 45 48 48 52 53 56 51 55 56 56 49 49 50 48 46 45 46 46 48 45 44 43 42 45 45 46 49 54 52 55 55 56 57 59 58
57 57 57 58 54 52 56 57 57 57 33 48 46 55 53 51 50 50 54 55 49 45 47 45 43 44 44 46 45 44 43 42 41 42 40 44 43 57 51 54 56 57 56 57 58
57 57 56 54 53 56 56 57 56 38 31 37 46 45 47 48 47 49 51 53 50 47 45 42 45 44 45 42 43 43 42 41 40 40 35 39 41 56 56 56 56 56 56 56 57
56 56 54 53 51 55 55 54 35 32 40 37 40 44 45 43 44 46 45 44 42 37 36 41 42 42 43 42 43 42 41 36 35 35 38 37 38 54 56 56 58 58 58 58 56
55 56 55 53 51 54 54 43 30 34 36 43 42 43 43 45 44 44 43 43 46 42 38 38 35 40 42 42 44 41 42 39 33 36 40 35 40 55 54 54 55 55 56 55 55
55 54 50 50 50 49 46 31 35 37 43 41 43 39 39 42 44 43 43 43 46 44 38 36 35 39 39 41 41 38 37 42 31 22 33 44 50 56 53 55 55 56 55 57 57
50 49 48 51 50 47 36 35 36 44 44 44 39 42 35 39 41 41 41 49 46 46 47 41 33 34 37 41 41 40 42 37 36 33 33 41 41 50 52 57 58 56 57 57 56
48 44 48 51 50 41 31 34 42 46 47 42 38 39 44 40 42 40 44 48 47 41 47 38 39 31 36 33 37 36 36 37 40 37 36 35 47 55 54 58 59 59 56 57 56
47 35 47 50 35 32 33 39 45 46 45 45 46 45 44 44 41 40 41 46 47 45 43 44 38 33 33 35 37 37 41 43 41 32 32 33 43 52 52 53 51 56 55 56 54
41 39 46 45 32 32 36 41 45 44 44 44 45 46 48 43 39 43 44 42 45 45 44 43 38 31 32 34 34 33 38 40 38 38 30 35 45 48 50 49 51 51 54 53 51
40 33 36 37 37 36 34 35 37 46 44 44 46 47 45 40 42 39 40 40 42 43 44 45 34 37 42 41 39 31 34 39 39 34 36 37 40 49 40 42 47 46 46 47 45
38 33 34 32 32 35 38 39 35 35 44 44 41 44 44 35 34 37 38 38 41 43 42 44 35 32 30 32 38 37 32 33 32 42 38 40 35 45 43 41 39 46 49 44 37
35 33 34 33 37 34 34 33 35 39 40 35 36 45 46 41 44 36 37 38 40 38 41 41 34 31 31 29 31 33 34 34 34 32 32 35 35 51 54 53 42 41 44 45 47
43 42 39 37 35 34 34 36 36 41 43 47 43 41 42 44 47 47 46 44 44 41 39 39 34 33 33 25 31 33 33 34 35 38 41 36 49 51 49 51 51 53 51 48 50
MSLP
1020.27 1020.19 1020.18 1020.07 1020.04 1019.93 1019.80 1019.46 1019.19 1018.90 1018.71 1018.63 1018.39 1018.14 1018.04 1017.86 1017.46 1017.15 1017.01 1017.38 1017.21 1016.97 1016.86 1016.37 1015.86 1015.64 1015.47 1015.45 1015.54 1015.36 1014.45 1013.68 1014.14 1014.71 1014.90 1015.90 1016.14 1016.64 1016.98 1016.70 1016.86 1016.67 1016.50 1016.85 1017.49
1020.25 1020.21 1020.05 1020.07 1019.91 1019.90 1019.80 1019.45 1019.25 1018.97 1018.71 1018.47 1018.30 1017.90 1017.86 1017.88 1017.51 1017.15 1017.34 1017.24 1017.13 1016.91 1016.57 1016.07 1015.73 1015.65 1015.37 1015.59 1015.78 1015.11 1014.89 1014.38 1015.02 1015.16 1015.38 1015.93 1016.25 1016.51 1016.67 1016.35 1016.15 1016.23 1016.50 1017.18 1017.63
1020.08 1019.95 1020.03 1020.04 1019.96 1019.69 1019.63 1019.35 1019.23 1018.93 1018.65 1018.61 1018.21 1017.74 1017.82 1017.88 1017.51 1017.06 1017.24 1017.17 1016.97 1016.95 1016.66 1016.31 1015.93 1015.72 1015.72 1015.83 1016.05 1015.97 1015.12 1015.53 1015.84 1016.24 1016.42 1016.30 1016.37 1016.33 1016.14 1015.50 1015.26 1015.47 1015.91 1016.62 1017.28
1019.93 1019.94 1019.87 1019.91 1019.76 1019.64 1019.48 1019.13 1019.06 1018.74 1018.67 1018.52 1018.28 1017.98 1017.40 1017.68 1017.71 1016.97 1017.10 1016.96 1016.75 1016.81 1016.74 1016.36 1015.91 1015.68 1015.83 1015.98 1016.44 1016.29 1016.36 1016.42 1016.84 1017.19 1017.06 1016.67 1016.56 1016.09 1015.73 1014.80 1015.50 1015.76 1016.27 1016.61 1016.95
1020.06 1019.88 1019.75 1019.67 1019.68 1019.57 1019.38 1018.80 1018.91 1018.78 1018.35 1018.61 1018.45 1017.85 1017.43 1017.50 1017.21 1017.21 1016.99 1016.82 1016.66 1016.63 1016.61 1016.37 1016.16 1016.00 1015.90 1016.40 1016.55 1016.93 1016.75 1017.09 1017.13 1017.62 1017.50 1017.33 1016.67 1016.31 1015.27 1015.25 1015.49 1016.05 1016.37 1016.46 1016.74
1019.77 1019.82 1019.74 1019.56 1019.44 1019.28 1019.09 1018.76 1018.79 1018.69 1018.13 1018.20 1018.45 1018.09 1017.29 1017.47 1017.30 1017.32 1017.03 1016.88 1016.70 1016.47 1016.55 1016.45 1016.34 1016.46 1016.74 1016.90 1016.65 1017.24 1017.19 1017.33 1017.30 1017.53 1017.63 1017.47 1016.70 1016.81 1014.85 1015.35 1015.31 1015.54 1015.68 1016.03 1016.39
1019.29 1019.69 1019.56 1019.39 1019.19 1019.05 1018.95 1018.48 1018.58 1018.44 1018.24 1017.82 1018.22 1018.22 1017.45 1017.05 1017.02 1017.19 1016.94 1016.98 1016.90 1016.57 1016.50 1016.63 1016.70 1016.29 1017.24 1017.38 1017.63 1017.24 1016.90 1017.03 1017.12 1017.51 1017.56 1017.61 1016.00 1015.30 1014.63 1015.16 1015.03 1015.03 1015.22 1015.53 1015.94
1019.17 1019.44 1019.42 1019.36 1019.14 1018.74 1018.89 1018.27 1018.14 1018.15 1018.21 1017.70 1017.85 1018.24 1017.28 1017.10 1017.09 1017.16 1017.07 1016.97 1016.91 1016.68 1016.87 1017.04 1016.89 1016.78 1017.13 1017.87 1017.41 1017.12 1016.61 1016.37 1017.03 1017.37 1017.48 1017.51 1014.55 1013.97 1014.56 1014.62 1014.34 1014.51 1014.63 1015.08 1015.28
1019.06 1019.17 1019.31 1019.16 1018.98 1018.79 1018.70 1018.08 1017.83 1018.03 1017.79 1017.84 1017.86 1017.91 1017.17 1017.13 1017.26 1017.24 1017.18 1016.94 1017.00 1016.88 1017.03 1017.14 1017.10 1017.14 1017.39 1017.23 1016.81 1016.44 1015.70 1016.05 1016.59 1017.38 1017.38 1017.06 1014.48 1013.91 1014.58 1014.52 1014.10 1014.13 1014.16 1014.34 1014.62
1018.70 1018.89 1019.08 1018.99 1018.74 1018.78 1018.49 1018.07 1017.80 1017.99 1017.78 1017.77 1018.04 1018.11 1017.46 1017.13 1017.11 1017.28 1017.24 1017.08 1016.97 1016.84 1016.91 1017.10 1017.33 1017.02 1016.96 1017.06 1016.39 1015.81 1015.67 1015.96 1016.58 1017.16 1017.07 1016.18 1014.26 1013.69 1013.80 1013.98 1013.73 1013.63 1013.71 1014.04 1014.29
1018.33 1018.60 1018.75 1018.72 1018.80 1018.52 1018.44 1018.02 1018.43 1018.14 1017.76 1016.98 1016.96 1017.19 1017.20 1017.47 1017.38 1017.47 1017.46 1017.07 1016.94 1016.94 1016.73 1017.39 1017.27 1016.83 1016.51 1017.00 1017.25 1016.61 1016.25 1016.23 1016.60 1017.61 1017.39 1015.37 1014.08 1013.07 1013.06 1013.33 1013.21 1013.21 1013.53 1013.74 1014.10
1017.90 1018.20 1018.48 1018.54 1018.55 1018.50 1018.56 1018.17 1017.40 1017.42 1017.01 1016.92 1017.15 1017.20 1017.15 1017.23 1017.46 1017.41 1017.61 1017.37 1017.07 1016.94 1017.30 1017.73 1017.43 1017.70 1017.88 1017.87 1017.88 1017.32 1016.83 1016.76 1017.05 1017.81 1017.60 1015.32 1013.45 1012.66 1012.98 1013.06 1013.29 1013.16 1013.15 1013.53 1014.22
1017.28 1017.75 1018.07 1018.36 1018.38 1018.40 1018.38 1017.75 1017.64 1017.29 1017.19 1016.91 1016.92 1016.99 1017.10 1017.26 1017.20 1017.33 1017.43 1017.17 1017.21 1017.31 1017.27 1017.55 1018.44 1018.39 1018.67 1018.52 1018.42 1017.88 1017.69 1017.81 1018.30 1017.75 1017.44 1015.99 1012.98 1012.41 1012.75 1012.96 1013.21 1013.36 1013.48 1013.64 1014.06
1016.64 1017.44 1017.78 1018.25 1018.71 1018.12 1018.04 1017.66 1017.55 1017.54 1017.67 1016.64 1016.78 1016.75 1017.04 1016.81 1017.42 1017.54 1017.43 1017.39 1017.70 1017.66 1017.71 1018.54 1019.04 1019.09 1019.24 1019.04 1019.05 1018.77 1018.88 1018.85 1018.81 1018.15 1017.21 1016.66 1013.61 1011.90 1012.15 1012.16 1012.54 1012.95 1013.24 1013.47 1013.88
1015.91 1016.67 1017.34 1017.73 1017.70 1018.01 1017.69 1017.58 1017.58 1017.93 1017.65 1016.14 1016.86 1016.97 1016.87 1016.92 1017.27 1017.66 1017.70 1017.36 1017.74 1017.97 1018.33 1019.08 1019.33 1019.69 1019.84 1019.44 1019.46 1019.83 1019.85 1019.64 1019.30 1018.42 1017.79 1016.36 1015.12 1011.39 1011.76 1011.53 1011.84 1012.51 1013.09 1013.41 1013.81
1015.69 1016.14 1016.95 1017.89 1017.86 1017.41 1017.45 1017.59 1017.54 1018.45 1016.59 1016.25 1016.46 1016.58 1016.71 1017.05 1017.24 1017.61 1017.67 1017.71 1018.41 1018.28 1018.68 1019.68 1020.27 1020.36 1020.45 1020.62 1020.35 1020.47 1020.21 1020.01 1019.42 1018.54 1017.60 1016.06 1015.04 1011.00 1010.72 1010.78 1011.44 1012.15 1012.85 1013.27 1013.67
1015.42 1015.78 1016.58 1017.13 1017.45 1017.01 1017.53 1017.57 1018.27 1017.37 1016.02 1015.92 1016.03 1016.15 1016.22 1016.77 1017.05 1017.02 1017.26 1017.59 1017.51 1018.02 1018.77 1019.93 1020.42 1020.80 1021.19 1020.96 1020.93 1020.54 1020.03 1019.60 1019.06 1018.24 1016.98 1016.04 1014.87 1010.90 1010.65 1010.93 1011.18 1011.64 1012.39 1013.15 1013.68
1015.96 1015.55 1015.71 1016.12 1017.21 1017.32 1017.43 1018.15 1017.21 1015.24 1015.16 1015.27 1015.40 1015.92 1015.85 1015.98 1016.50 1016.61 1016.86 1016.85 1016.65 1016.59 1018.00 1019.00 1020.55 1020.78 1021.17 1020.90 1020.23 1020.43 1019.80 1019.13 1018.74 1018.38 1016.94 1015.88 1013.33 1010.60 1010.84 1011.08 1011.43 1011.90 1012.37 1013.01 1013.50
1015.68 1015.12 1015.59 1016.34 1016.77 1017.85 1017.86 1018.02 1015.19 1014.72 1014.36 1014.72 1015.48 1015.58 1015.54 1015.49 1015.46 1015.99 1016.15 1015.68 1015.15 1015.65 1016.06 1017.81 1019.94 1021.18 1021.51 1021.38 1021.12 1020.88 1020.34 1019.46 1019.03 1019.61 1017.56 1014.21 1012.02 1010.55 1010.78 1010.87 1011.31 1011.65 1012.13 1012.53 1013.10
1015.81 1015.47 1015.30 1015.56 1016.57 1017.64 1018.44 1016.77 1015.45 1014.49 1014.35 1014.06 1014.03 1014.00 1014.27 1014.77 1015.10 1015.24 1015.21 1013.90 1014.07 1014.24 1015.01 1016.06 1019.07 1021.38 1021.72 1021.63 1021.46 1020.92 1020.35 1019.81 1018.95 1018.36 1016.74 1014.00 1012.43 1010.66 1010.44 1010.31 1010.80 1011.32 1011.85 1012.36 1012.93
1015.89 1015.41 1015.40 1015.36 1016.10 1017.28 1017.22 1016.12 1015.11 1014.33 1014.20 1013.82 1013.50 1013.49 1013.30 1013.80 1014.19 1014.13 1013.75 1013.50 1013.58 1014.62 1015.04 1015.98 1017.06 1021.53 1021.80 1021.20 1020.55 1021.10 1020.31 1019.67 1018.79 1017.99 1016.70 1014.95 1011.62 1010.35 1010.35 1010.40 1010.78 1011.20 1011.93 1012.37 1012.83
1015.48 1015.40 1015.58 1015.39 1016.26 1016.38 1015.64 1014.56 1014.32 1013.69 1013.97 1013.71 1013.41 1012.96 1012.71 1012.95 1013.52 1013.71 1013.17 1013.10 1013.60 1014.04 1014.95 1015.45 1017.11 1019.76 1020.67 1020.91 1020.89 1020.20 1019.38 1018.46 1017.89 1018.23 1017.63 1016.03 1012.23 1010.75 1011.11 1011.26 1011.62 1011.65 1012.15 1012.52 1012.98
1015.39 1015.73 1015.83 1015.99 1015.26 1015.42 1015.07 1014.24 1014.01 1013.66 1013.73 1013.58 1012.98 1012.59 1012.51 1012.54 1013.03 1013.04 1013.09 1013.67 1013.97 1014.08 1014.24 1014.72 1016.11 1018.84 1020.27 1020.91 1021.02 1020.00 1018.93 1018.32 1017.84 1017.52 1017.13 1015.85 1012.50 1011.37 1011.73 1011.80 1011.77 1012.05 1012.19 1012.69 1013.06
1015.60 1015.97 1016.11 1016.05 1015.42 1014.76 1014.64 1014.27 1013.73 1013.30 1013.47 1013.50 1013.05 1012.61 1012.73 1012.67 1012.76 1012.96 1013.52 1014.36 1014.51 1014.47 1014.66 1014.47 1015.02 1015.62 1016.46 1016.47 1016.85 1018.46 1017.89 1017.85 1017.41 1017.29 1016.16 1014.70 1012.34 1011.98 1011.87 1011.85 1012.08 1012.23 1012.38 1012.66 1012.95
1015.12 1014.92 1014.85 1015.17 1015.09 1014.62 1014.30 1013.44 1013.10 1012.90 1012.83 1013.38 1013.27 1012.57 1012.23 1012.62 1012.85 1013.07 1013.74 1014.60 1014.99 1014.84 1015.12 1014.88 1015.31 1015.68 1016.38 1016.50 1016.25 1016.10 1016.18 1016.84 1016.76 1015.55 1015.01 1013.32 1012.88 1011.48 1011.54 1011.74 1011.84 1011.95 1012.24 1012.67 1013.01
1014.38 1014.49 1014.57 1014.47 1014.13 1014.18 1013.98 1013.08 1012.33 1012.20 1012.29 1012.65 1012.73 1012.09 1012.09 1012.05 1011.95 1012.57 1013.42 1014.18 1014.39 1015.46 1015.40 1015.31 1015.48 1015.95 1016.68 1016.82 1016.44 1016.18 1015.96 1016.05 1016.02 1015.57 1014.79 1013.27 1012.05 1011.03 1010.71 1011.04 1011.65 1011.69 1011.99 1012.19 1012.49
1013.74 1013.99 1013.86 1013.32 1013.57 1013.49 1012.47 1011.79 1011.91 1012.04 1011.75 1011.23 1011.27 1012.13 1012.15 1012.19 1012.55 1012.28 1012.48 1012.74 1013.44 1013.89 1014.94 1015.32 1015.34 1015.89 1016.45 1016.78 1016.28 1015.50 1014.56 1014.69 1014.62 1014.13 1013.28 1012.71 1010.08 1010.19 1010.22 1010.41 1010.70 1010.63 1011.08 1011.39 1011.63
Wind_Speed
5 6 7 7 8 9 8 8 7 6 6 7 6 7 8 9 5 1 1 2 5 9 5 3 2 3 2 3 2 1 5 4 3 4 2 5 5 4 1 4 5 7 6 2 6
4 5 6 8 8 9 9 9 9 8 7 6 6 6 7 8 2 1 1 6 8 6 2 3 4 2 3 3 1 4 4 3 1 3 3 5 5 2 4 7 11 11 10 5 7
2 4 5 6 8 8 9 9 9 8 7 7 6 5 6 5 3 2 3 8 6 2 0 1 3 2 2 1 1 1 4 2 3 3 3 4 5 4 5 10 11 7 5 9 9
1 2 2 5 6 9 9 10 10 8 8 7 8 7 5 2 4 2 7 7 2 3 1 2 2 3 2 3 1 4 2 2 1 2 3 4 1 5 13 7 2 4 3 5 9
4 3 2 4 6 7 9 8 10 10 8 9 9 6 1 2 3 1 6 4 3 3 1 2 2 3 2 2 2 4 1 3 1 3 5 4 9 9 14 13 10 4 5 7 7
5 5 3 3 5 7 8 9 10 9 7 7 8 7 2 3 1 3 4 1 3 3 3 1 2 2 4 1 2 2 2 3 2 3 4 6 6 3 1 2 5 13 12 10 10
6 6 5 5 5 7 8 8 9 9 7 4 6 3 2 1 0 2 2 1 1 1 4 2 5 3 3 3 2 1 3 5 4 0 2 5 11 12 8 6 5 8 7 7 9
7 7 6 6 7 7 10 9 9 7 6 2 1 2 3 1 1 2 1 3 2 5 5 4 5 8 3 3 2 3 2 4 3 1 1 4 8 3 1 8 9 7 7 6 7
8 7 7 6 6 8 11 11 6 3 2 0 2 2 3 2 2 1 2 3 3 4 5 4 2 4 4 2 3 2 3 2 2 2 4 5 10 2 1 5 7 8 7 8 8
9 8 8 6 5 8 12 7 0 2 3 2 1 2 2 3 3 2 1 1 2 5 4 2 2 3 3 3 4 2 2 2 6 2 3 11 23 18 13 15 17 16 12 8 6
10 9 8 6 5 6 6 1 3 2 2 4 3 0 1 2 1 2 1 4 2 2 4 2 5 6 3 2 2 1 2 5 3 2 7 9 17 18 13 8 9 9 9 8 6
11 10 9 7 5 2 1 3 1 2 4 3 1 1 1 2 3 2 2 5 5 4 4 3 6 4 7 4 3 2 2 4 4 0 5 10 21 11 3 2 3 2 5 5 5
12 11 10 7 2 0 2 3 1 2 2 3 4 4 3 5 2 8 5 4 3 6 7 4 3 5 2 4 4 2 3 1 4 10 3 13 7 1 2 2 1 1 1 3 3
15 13 11 7 2 2 4 1 2 2 2 5 5 3 3 4 4 1 0 1 2 7 6 1 4 4 4 3 3 2 2 2 3 6 4 5 6 2 1 1 2 2 3 3 4
16 16 13 12 5 3 1 3 3 2 4 4 4 1 3 4 7 0 1 1 5 7 5 3 7 6 5 2 2 2 1 1 0 1 3 3 4 2 2 5 5 3 2 1 3
12 15 14 2 1 2 4 4 1 4 12 3 4 6 7 2 2 4 2 5 2 4 6 4 1 1 2 3 3 7 2 1 1 0 2 2 2 2 4 4 4 4 3 3 3
10 15 13 5 3 7 4 2 4 8 2 7 6 7 4 5 4 5 7 7 7 6 4 1 3 2 2 3 3 2 2 2 2 1 2 3 4 8 3 5 4 5 5 4 3
12 12 11 4 4 4 3 3 8 2 6 2 5 7 8 9 4 7 7 8 8 2 4 8 5 8 4 2 2 5 2 3 4 2 3 2 6 1 1 2 4 3 3 4 6
13 3 5 6 9 2 5 6 8 6 5 10 5 4 5 4 5 6 10 6 8 13 7 7 2 1 2 1 2 5 4 2 7 2 3 2 6 8 6 10 9 8 6 7 6
3 2 3 12 10 6 5 16 6 2 4 4 8 7 11 9 9 10 12 7 7 12 1 7 6 2 2 1 3 2 4 3 0 2 4 3 6 5 3 10 6 6 6 5 5
2 2 2 14 7 7 8 11 15 5 4 6 5 5 6 9 8 8 6 2 3 6 3 4 4 2 1 8 8 5 3 1 1 1 2 3 4 5 4 6 6 5 4 4 5
3 3 3 11 3 3 11 11 7 7 3 3 3 3 9 11 11 7 12 4 4 11 11 6 6 5 2 2 2 2 3 6 3 5 1 2 8 3 6 5 4 6 5 4 4
2 0 3 3 7 7 3 12 9 9 7 6 4 7 2 8 5 9 7 3 6 6 9 9 4 6 1 1 1 6 7 4 5 2 8 5 6 2 4 6 8 9 7 5 5
3 2 1 2 1 5 8 8 10 12 3 2 4 3 3 3 1 5 5 1 0 1 3 4 2 6 11 5 8 8 9 13 5 4 6 9 8 6 7 6 4 6 8 7 4
3 5 4 5 8 4 8 6 16 11 15 7 7 13 8 5 2 4 2 1 0 2 2 2 5 3 2 3 1 4 14 17 11 6 8 4 11 11 7 9 8 6 6 4 6
4 4 2 1 4 13 8 5 13 18 10 10 18 16 14 5 6 10 7 5 4 4 3 1 1 2 1 3 3 3 4 13 7 3 9 9 16 13 15 7 5 9 8 8 7
3 1 2 6 6 5 10 18 4 7 9 17 22 20 18 14 3 4 1 6 3 7 10 7 6 4 4 1 2 9 11 16 7 7 8 9 15 6 6 6 7 10 7 8 8
Wind_Direction
20 15 6 2 351 345 336 339 339 341 337 332 336 342 332 328 312 228 163 320 297 308 310 282 168 123 117 97 53 250 244 234 242 203 125 153 209 169 312 241 216 207 248 80 134
16 14 13 1 357 345 336 341 337 333 330 322 327 337 330 330 293 145 118 310 306 308 260 189 143 143 112 99 42 238 252 230 221 201 219 185 219 231 242 222 236 234 224 189 182
5 20 9 358 348 347 340 342 337 329 326 316 317 329 329 315 255 144 338 322 313 271 227 340 106 92 118 128 95 186 267 147 209 240 239 218 227 205 240 250 244 243 243 205 219
293 332 2 348 350 344 343 347 338 331 319 312 314 320 328 245 258 148 335 325 301 162 180 147 149 141 171 199 93 236 233 232 109 224 217 239 296 248 226 242 85 204 133 189 223
268 277 323 343 336 339 338 353 338 327 324 314 310 318 234 213 251 359 339 337 118 147 127 164 192 145 187 141 134 263 179 220 178 238 261 288 256 266 254 249 246 206 223 241 240
251 266 283 311 325 332 336 343 331 321 321 310 307 312 184 234 84 326 334 127 78 147 124 147 177 122 100 96 159 20 265 278 220 248 271 284 277 284 262 168 229 212 232 243 239
220 255 268 291 309 320 321 330 322 312 303 299 304 300 265 259 183 326 20 70 4 159 130 98 138 121 136 133 101 129 274 253 222 14 290 318 256 232 241 211 208 189 207 214 227
234 242 254 281 301 313 310 316 313 299 286 266 256 271 257 90 4 26 331 92 85 63 83 98 104 98 51 128 101 263 229 288 94 353 130 285 281 202 199 214 219 212 216 227 228
236 240 251 265 292 306 306 310 298 275 224 37 186 237 248 131 183 77 346 133 107 84 75 101 66 79 146 204 235 235 294 290 291 65 301 234 288 53 233 240 250 234 258 261 256
229 238 246 261 289 307 311 297 288 133 94 110 41 265 147 201 131 102 32 117 121 127 122 54 58 148 127 192 261 197 258 232 269 39 265 265 266 279 274 268 266 267 266 242 234
220 228 236 248 274 327 335 103 191 187 213 213 170 56 131 82 162 80 1 137 128 89 171 45 224 220 174 182 307 156 212 275 285 38 301 271 284 292 309 291 269 255 236 221 226
211 215 222 230 253 329 328 252 242 71 290 196 179 280 175 211 130 171 179 182 189 169 144 165 229 97 100 126 212 215 267 285 277 23 302 310 300 309 301 321 324 43 153 174 170
206 210 206 212 225 249 240 241 161 185 246 221 189 184 191 163 226 167 181 160 168 157 183 216 100 127 160 164 210 203 255 349 295 318 228 306 253 219 167 269 309 142 100 153 175
201 201 192 173 195 158 228 159 171 261 310 219 193 196 138 162 212 60 359 137 110 175 143 204 130 148 180 211 236 241 95 108 320 330 310 5 299 173 343 103 142 117 197 210 191
198 189 183 179 132 190 32 142 131 250 268 120 154 93 138 191 123 91 30 142 171 146 166 146 159 162 204 169 204 85 90 46 330 278 306 161 252 153 233 174 171 137 126 156 189
214 179 161 139 287 200 136 134 143 54 243 159 133 157 145 153 119 130 133 59 116 107 52 81 53 17 57 95 66 131 127 136 126 147 243 109 309 228 189 174 167 169 184 215 197
256 180 153 135 233 151 152 143 80 208 359 186 178 173 158 152 146 174 166 172 176 127 180 125 161 132 224 141 108 161 195 301 312 229 260 122 252 273 200 208 196 171 183 215 215
326 203 178 149 130 169 119 59 217 183 198 107 118 132 181 157 181 165 151 203 230 123 131 158 232 179 164 283 171 170 228 187 242 266 312 147 239 220 246 269 233 225 219 241 236
313 178 146 159 135 6 106 208 230 197 161 145 125 135 209 199 162 160 201 217 204 187 156 143 127 53 43 3 315 163 199 62 105 79 270 260 258 257 259 252 239 228 210 229 230
325 270 198 147 134 122 161 225 226 226 148 169 193 173 181 182 170 194 176 196 209 187 149 193 104 4 69 199 59 291 129 121 39 196 253 269 275 267 226 217 205 208 206 206 218
256 210 51 144 140 142 194 226 231 240 208 177 226 159 191 175 201 201 196 248 178 148 119 134 106 124 205 201 177 156 190 145 88 299 220 289 251 200 235 211 195 175 191 194 219
251 211 135 162 146 176 199 198 195 214 162 268 261 238 186 173 186 216 210 230 141 149 173 179 107 140 193 29 337 319 214 188 191 186 34 328 275 155 254 262 260 247 245 236 236
276 52 84 285 196 192 260 231 229 204 199 204 249 223 193 184 201 205 193 25 162 174 159 183 175 116 79 166 283 227 189 186 101 98 196 163 253 109 255 246 237 247 250 240 258
165 196 300 72 312 212 193 213 217 216 245 184 286 181 169 213 273 179 173 79 30 138 9 103 123 175 203 172 131 186 186 183 172 159 169 225 263 256 265 255 245 250 257 268 261
195 218 190 190 222 194 210 205 209 221 203 193 243 233 188 184 117 169 96 77 8 123 6 167 216 131 357 337 271 183 171 177 195 188 187 227 220 254 236 248 248 261 282 279 276
199 188 146 172 288 185 201 217 222 216 170 199 229 230 230 236 229 186 145 188 193 130 175 220 167 129 160 340 5 269 186 191 206 256 289 276 274 240 263 252 263 254 260 268 260
165 127 214 191 194 196 214 218 212 217 229 229 215 225 239 234 325 157 124 127 140 154 185 178 149 155 217 2 7 264 197 187 186 207 191 208 241 177 235 234 256 270 267 264 271